DateTimeUTC,F1_A11,F1_S11,BsB_S11,BsG_S11,BsR_S11,BbsB_S11,BbsG_S11,BbsR_S11,BaB_A11,BaG_A11,BaR_A11,Tu_S11,T_S11,Uu_S11,U_S11,P_S11,T1_A11
2021-08-03T23:00:00Z,00000200,20000000,,,,,,,0000.02,-000.05,-000.22,19.9,27.0,04.7,03.1,0672.2,31.2
2021-08-03T23:01:00Z,00000200,20000000,,,,,,,0000.06,-000.42,0000.10,19.9,27.0,04.6,03.0,0672.2,31.2
2021-08-03T23:02:00Z,00000200,20000000,,,,,,,-000.01,0000.14,0000.13,19.9,27.0,04.6,03.0,0672.2,31.2
2021-08-03T23:03:00Z,00000200,60000000,,,,,,,0000.96,0001.06,0000.45,19.9,27.0,04.6,03.0,0672.2,31.2
2021-08-03T23:04:00Z,00000200,40000000,0003.90,0002.96,0001.78,0000.56,0000.12,0000.43,0001.12,0001.16,0000.61,20.0,26.8,04.7,03.2,0673.1,31.2
2021-08-03T23:05:00Z,00000200,00000000,0004.30,0002.63,0001.79,0000.84,0000.27,0000.17,0001.33,0000.96,0001.06,20.0,26.7,04.7,03.2,0673.2,31.2
2021-08-03T23:06:00Z,00000200,00000000,0003.71,0002.87,0001.37,0000.85,0000.04,0000.14,0000.93,0000.95,0000.85,20.0,26.7,04.9,03.3,0673.2,31.2
2021-08-03T23:07:00Z,00000200,00000000,0003.64,0002.68,0002.10,0000.31,0000.38,0000.44,0001.06,0000.86,0000.63,20.0,26.7,05.0,03.3,0673.2,31.1
2021-08-03T23:08:00Z,00000200,00000000,0003.53,0002.35,0001.78,0000.91,0000.36,0000.13,0000.91,0000.80,0000.46,20.0,26.6,05.0,03.3,0673.2,31.1
2021-08-03T23:09:00Z,00000200,00000000,0003.87,0002.22,0001.95,0001.15,0000.21,0000.37,0000.14,0000.03,-000.21,20.0,26.6,04.6,03.1,0673.2,31.1
2021-08-03T23:10:00Z,00000200,00000000,0004.03,0002.11,0001.25,0000.84,0000.56,0000.10,-000.25,-000.09,-000.32,19.9,26.6,04.1,02.7,0673.3,31.1
2021-08-03T23:11:00Z,00000200,00000000,0002.84,0002.30,0001.62,0000.88,0000.46,0000.19,0000.54,0000.23,0000.13,19.9,26.6,03.8,02.5,0673.3,31.2
2021-08-03T23:12:00Z,00000200,00000000,0004.15,0002.70,0002.01,0000.09,0000.38,0000.43,0001.75,0001.46,0001.45,19.9,26.6,03.7,02.5,0673.3,31.1
2021-08-03T23:13:00Z,00000200,00000000,0002.16,0002.65,0001.51,-000.11,0000.29,0000.08,0001.24,0001.52,0001.09,19.9,26.5,04.2,02.8,0673.2,31.1
2021-08-03T23:14:00Z,00000200,00000000,0004.28,0002.34,0001.24,0000.54,0000.31,0000.03,0001.67,0001.74,0001.55,19.9,26.5,04.6,03.1,0673.2,31.1
2021-08-03T23:15:00Z,00000200,00000000,0003.28,0002.57,0001.80,0000.27,0000.14,0000.19,0001.54,0001.18,0001.23,19.9,26.5,05.1,03.4,0673.2,31.1
2021-08-03T23:16:00Z,00000200,00000000,0003.59,0002.79,0001.46,0000.58,0000.28,0000.32,0000.93,0001.28,0000.80,19.9,26.5,05.3,03.5,0673.2,31.1
2021-08-03T23:17:00Z,00000200,00000000,0003.06,0002.72,0001.41,0000.50,0000.38,0000.17,0001.40,0000.93,0001.10,19.9,26.5,05.2,03.5,0673.2,31.1
2021-08-03T23:18:00Z,00000200,00000000,0003.35,0002.50,0001.51,0000.56,0000.42,0000.33,0000.50,0000.19,0000.35,19.8,26.5,05.4,03.6,0673.2,31.1
2021-08-03T23:19:00Z,00000200,00000000,0003.95,0002.10,0001.67,0001.14,0000.02,0000.08,0000.97,0001.35,0000.52,19.8,26.5,05.2,03.5,0673.2,31.1
2021-08-03T23:20:00Z,00000200,00000000,0003.42,0002.48,0001.28,0000.24,0000.30,-000.20,0000.73,0000.52,0000.55,19.8,26.5,05.2,03.5,0673.2,31.1
2021-08-03T23:21:00Z,00000200,00000000,0002.82,0002.97,0001.47,0001.49,0000.42,-000.32,0001.47,0001.50,0000.98,19.8,26.4,05.2,03.5,0673.2,31.1
2021-08-03T23:22:00Z,00000200,00000000,0002.77,0002.66,0001.69,0000.92,0000.13,0000.45,0000.98,0000.94,0000.90,19.8,26.4,05.5,03.7,0673.2,31.1
2021-08-03T23:23:00Z,00000200,00000000,0003.90,0002.40,0001.33,0001.15,0000.27,0000.21,0001.20,0000.93,0000.96,19.8,26.4,05.6,03.8,0673.2,31.1
2021-08-03T23:24:00Z,00000200,00000000,0002.87,0002.69,0001.31,0000.76,0000.10,0000.15,0000.54,0000.60,0000.20,19.8,26.4,05.6,03.8,0673.2,31.1
2021-08-03T23:25:00Z,00000200,00000000,0003.03,0002.55,0001.61,0000.87,0000.42,0000.01,0000.91,0001.07,0000.80,19.8,26.4,05.6,03.8,0673.2,31.1
2021-08-03T23:26:00Z,00000200,00000000,0003.98,0002.15,0001.20,0000.78,0000.27,-000.04,0000.89,0000.52,0000.22,19.8,26.4,05.7,03.8,0673.2,31.1
2021-08-03T23:27:00Z,00000200,00000000,0003.00,0002.25,0001.64,0000.10,0000.39,0000.24,0001.14,0001.05,0001.20,19.7,26.4,05.8,03.9,0673.2,31.1
2021-08-03T23:28:00Z,00000200,00000000,0003.75,0002.82,0001.46,0000.77,0000.33,0000.37,0001.01,0001.13,0000.57,19.7,26.3,06.0,04.0,0673.2,31.1
2021-08-03T23:29:00Z,00000200,00000000,0003.67,0002.43,0001.45,0000.22,0000.58,0000.29,0001.10,0000.79,0000.64,19.7,26.3,06.1,04.1,0673.2,31.1
2021-08-03T23:30:00Z,00000200,00000000,0003.35,0002.43,0001.24,-000.07,0000.44,0000.04,0000.50,0000.87,0000.73,19.7,26.3,06.0,04.0,0673.2,31.1
2021-08-03T23:31:00Z,00000200,00000000,0004.09,0002.28,0001.71,0001.28,0000.48,-000.06,0001.12,0000.75,0000.39,19.7,26.3,05.9,03.9,0673.2,31.1
2021-08-03T23:32:00Z,00000200,00000000,0003.55,0002.65,0001.75,0000.95,0000.57,0000.68,0001.07,0000.83,0000.94,19.7,26.3,06.0,04.0,0673.2,31.1
2021-08-03T23:33:00Z,00000200,00000000,0004.10,0002.33,0001.46,0000.59,0000.31,0000.15,0001.00,0000.74,0001.04,19.7,26.3,06.0,04.0,0673.2,31.1
2021-08-03T23:34:00Z,00000200,00000000,0003.06,0002.60,0001.47,0000.62,0000.27,0000.20,0001.10,0000.69,0000.10,19.7,26.3,06.1,04.1,0673.2,31.1
2021-08-03T23:35:00Z,00000200,00000000,0003.39,0002.38,0001.37,0001.14,0000.15,0000.17,0001.07,0001.17,0000.96,19.6,26.3,06.1,04.1,0673.2,31.1
2021-08-03T23:36:00Z,00000200,00000000,0003.65,0002.78,0001.78,0000.64,0000.53,0000.51,0001.04,0001.29,0000.75,19.6,26.2,06.1,04.1,0673.2,31.1
2021-08-03T23:37:00Z,00000200,00000000,0003.89,0002.90,0001.81,0000.68,0000.37,0000.56,0001.34,0000.94,0001.03,19.6,26.2,06.3,04.2,0673.2,31.1
2021-08-03T23:38:00Z,00000200,00000000,0004.16,0003.09,0002.12,0000.93,0000.65,0000.57,0000.75,0001.14,0001.00,19.6,26.2,06.5,04.3,0673.2,31.1
2021-08-03T23:39:00Z,00000200,00000000,0003.54,0002.76,0001.47,0000.60,0000.38,0000.23,0001.41,0001.24,0000.83,19.6,26.2,06.7,04.5,0673.2,31.1
2021-08-03T23:40:00Z,00000200,00000000,0003.89,0002.91,0001.35,0000.75,0000.51,-000.18,0000.85,0000.44,0000.50,19.6,26.2,06.6,04.4,0673.2,31.1
2021-08-03T23:41:00Z,00000200,00000000,0004.23,0002.54,0001.60,0000.07,0000.32,0000.46,0000.95,0001.14,0000.76,19.6,26.2,06.5,04.4,0673.2,31.1
2021-08-03T23:42:00Z,00000200,00000000,0004.32,0002.69,0001.49,0000.82,0000.52,0000.45,0001.10,0000.74,0000.33,19.6,26.2,06.4,04.3,0673.2,31.1
2021-08-03T23:43:00Z,00000200,00000000,0003.71,0002.02,0001.57,0000.91,0000.52,0000.23,0000.56,0000.76,0000.51,19.6,26.2,06.4,04.3,0673.2,31.1
2021-08-03T23:44:00Z,00000200,00000000,0003.74,0002.93,0001.60,0000.84,0000.20,0000.39,0000.90,0000.71,0000.75,19.6,26.1,06.3,04.2,0673.2,31.1
2021-08-03T23:45:00Z,00000200,00000000,0003.59,0002.69,0001.58,0000.16,0000.63,-000.10,0001.27,0001.48,0001.13,19.5,26.1,06.4,04.3,0673.2,31.1
2021-08-03T23:46:00Z,00000200,00000000,0003.57,0002.97,0001.71,0000.15,0000.36,0000.35,0001.25,0001.16,0000.72,19.5,26.1,06.6,04.4,0673.2,31.1
2021-08-03T23:47:00Z,00000200,00000000,0003.62,0002.70,0001.63,0001.52,0000.60,0000.30,0001.25,0001.21,0001.21,19.5,26.1,06.8,04.6,0673.2,31.1
2021-08-03T23:48:00Z,00000200,00000000,0003.75,0002.83,0001.84,0000.27,0000.42,0000.17,0000.97,0000.82,0000.91,19.5,26.1,06.9,04.6,0673.2,31.1
2021-08-03T23:49:00Z,00000200,00000000,0003.13,0002.96,0001.73,0000.82,0000.34,0000.16,0001.32,0001.39,0000.73,19.5,26.1,07.1,04.8,0673.2,31.1
2021-08-03T23:50:00Z,00000200,00000000,0003.70,0002.43,0002.04,0000.99,0000.18,0000.26,0000.62,0000.61,0000.33,19.5,26.1,06.9,04.6,0673.2,31.1
2021-08-03T23:51:00Z,00000200,00000000,0003.97,0002.45,0001.83,0000.85,0000.11,0000.26,0001.02,0000.40,0000.38,19.5,26.0,06.8,04.6,0673.2,31.1
2021-08-03T23:52:00Z,00000200,00000000,0004.02,0002.80,0001.57,0000.75,0000.16,0000.25,0000.80,0000.88,0000.94,19.5,26.0,06.7,04.5,0673.2,31.0
2021-08-03T23:53:00Z,00000200,00000000,0004.13,0002.75,0001.86,0000.37,0000.67,0000.15,0001.31,0000.98,0001.09,19.5,26.0,06.7,04.5,0673.2,31.1
2021-08-03T23:54:00Z,00000200,00000000,0004.02,0003.16,0001.64,0000.83,0000.52,0000.22,0000.81,0001.46,0000.34,19.4,26.0,06.7,04.5,0673.1,31.1
2021-08-03T23:55:00Z,00000200,00000000,0003.80,0002.64,0001.99,0000.56,0000.73,0000.19,0000.65,0000.21,0000.52,19.4,26.0,06.7,04.5,0673.1,31.0
2021-08-03T23:56:00Z,00000200,00000000,0003.97,0002.71,0001.46,0000.89,0000.34,0000.12,0000.92,0000.33,0000.40,19.4,26.0,06.6,04.4,0673.2,31.0
2021-08-03T23:57:00Z,00000200,40000000,,,,,,,-000.08,0000.10,-000.40,19.4,26.0,06.4,04.3,0673.2,31.1
2021-08-03T23:58:00Z,00000200,60000000,,,,,,,0000.06,-000.30,-000.46,19.1,26.1,06.3,04.1,0672.2,31.0
2021-08-03T23:59:00Z,00000200,20000000,,,,,,,-000.59,-000.22,-000.08,19.1,26.2,06.0,03.9,0672.2,31.0
